Flag for Norway Weather past 2 weeks in Sandefjord, Norway

Now
68 °F

Scattered clouds.


Feels Like: 68 °F
Forecast: 60 / 69 °F
Wind: 16 mph from South

Location: Torp

Current Time: Jul 31, 2014 at 1:49:12 PM

Latest Report: Jul 31, 2014 at 12:50 PM


Visibility: N/A

Pressure: 29.68 "Hg

Humidity: 56%

Dew point: 52 °F

Location of SandefjordLocation

Historic Weather in Sandefjord — Graph

°F

Sandefjord temperature yesterday

Maximum temperature yesterday: 75 °F (at 1:50 PM)
Minimum temperature yesterday: 59 °F (at 5:20 AM)
Average temperature yesterday: 69 °F

Past Weeks' High & Low Weather Summary

 TemperatureHumidityPressure
High90 °F (Jul 23, 4:20 PM)100% (Jul 17, 1:50 AM)30.30 "Hg (Jul 17, 1:50 AM)
Low52 °F (Jul 18, 4:50 AM)31% (Jul 23, 4:50 PM)29.62 "Hg (Jul 30, 7:50 AM)
Average70 °F66%30.03 "Hg
* Reported Jul 16 12:20 PM — Jul 31 12:50 PM, Sandefjord, Weather by CustomWeather, © 2014

Note: Actual official high and low records may vary slightly from our data, if they occured in-between our weather recording intervals... More about our weather records

Advertising

Sandefjord weather history for previous 24 hours

 ConditionsComfort  
Time TempWeatherWind HumidityBarometerVisibility
12:50 PM
Jul 31
68 °FScattered clouds.16 mph56%29.68 "HgN/A
12:20 PM70 °FScattered clouds.13 mph57%29.68 "HgN/A
11:50 AM70 °FScattered clouds.13 mph57%29.68 "HgN/A
11:20 AM70 °FPassing clouds.10 mph57%29.68 "HgN/A
10:50 AM68 °FPassing clouds.10 mph56%29.68 "HgN/A
10:20 AM68 °FSunny.12 mph53%29.68 "Hg10 mi
9:50 AM66 °FPassing clouds.9 mph56%29.68 "HgN/A
9:20 AM66 °FSunny.14 mph56%29.68 "Hg10 mi
8:50 AM64 °FSunny.12 mph56%29.68 "Hg10 mi
7:50 AM63 °FSunny.8 mph64%29.68 "Hg10 mi
7:20 AM61 °FSunny.8 mph68%29.68 "Hg10 mi
6:50 AM59 °FSunny.7 mph72%29.68 "Hg10 mi
6:20 AM57 °FSunny.7 mph77%29.68 "Hg10 mi
5:50 AM57 °FClear.3 mph72%29.65 "Hg10 mi
5:20 AM57 °FCool.6 mph77%29.65 "HgN/A
4:50 AM55 °FCool.3 mph82%29.65 "HgN/A
4:20 AM55 °FCool.5 mph77%29.65 "HgN/A
3:50 AM57 °FCool.5 mph77%29.65 "HgN/A
3:20 AM55 °FCool.3 mph77%29.65 "HgN/A
2:50 AM55 °FCool.3 mph77%29.65 "HgN/A
2:20 AM59 °FCool.5 mph68%29.65 "HgN/A
1:50 AM61 °FCool.7 mph63%29.65 "HgN/A
1:20 AM61 °FCool.7 mph63%29.65 "HgN/A
12:50 AM61 °FCool.7 mph63%29.65 "HgN/A
12:20 AM63 °FMild.5 mph59%29.65 "HgN/A
11:50 PM
Jul 30
63 °FMild.8 mph59%29.65 "HgN/A
11:20 PM64 °FMild.7 mph56%29.65 "HgN/A
10:50 PM66 °FClear.8 mph52%29.65 "Hg10 mi
10:20 PM68 °FSunny.10 mph49%29.65 "Hg10 mi
9:50 PM68 °FSunny.8 mph49%29.65 "Hg10 mi
9:20 PM70 °FPassing clouds.7 mph46%29.65 "HgN/A
8:50 PM72 °FPassing clouds.9 mph44%29.62 "HgN/A
8:20 PM73 °FSunny.10 mph41%29.62 "Hg10 mi
7:50 PM73 °FPassing clouds.9 mph44%29.62 "HgN/A
7:20 PM72 °FPassing clouds.13 mph57%29.62 "HgN/A
6:50 PM73 °FPassing clouds.16 mph53%29.62 "HgN/A
6:20 PM73 °FPassing clouds.17 mph50%29.62 "HgN/A
5:50 PM72 °FPassing clouds.21 mph50%29.62 "HgN/A
5:20 PM73 °FPassing clouds.21 mph50%29.62 "HgN/A
4:50 PM73 °FPassing clouds.20 mph53%29.65 "HgN/A
4:20 PM73 °FPassing clouds.23 mph50%29.65 "HgN/A
3:50 PM73 °FPassing clouds.23 mph50%29.65 "HgN/A
3:20 PM73 °FPassing clouds.23 mph50%29.65 "HgN/A
2:50 PM73 °FPassing clouds.20 mph61%29.65 "HgN/A
2:20 PM73 °FSunny.22 mph53%29.65 "Hg10 mi
1:50 PM75 °FPassing clouds.20 mph54%29.65 "HgN/A
1:20 PM72 °FPassing clouds.18 mph65%29.65 "HgN/A
Weather by CustomWeather, © 2014

See weather overviewHow to use our weather pages